Location: Peebles
(55.6412°N, 3.1714°W)
Time: 12:12:52
(UTC+00:00)

CUTE-I - Pass Details

Date: 18 December 2023
Orbit: 807 x 823 km, 98.7° (Epoch: 24 February)

Event Time Altitude Azimuth Distance (km) Brightness Sun altitude
Rises 16:53:11 0° 151° (SSE) 3,330 ? -9.1°
Reaches altitude 10° 16:55:31 10° 149° (SSE) 2,405 ? -9.4°
Maximum altitude 17:00:47 66° 68° (ENE) 896 ? -10.1°
Drops below altitude 10° 17:06:07 10° 347° (NNW) 2,431 ? -10.8°
Sets 17:08:30 0° 345° (NNW) 3,370 ? -11.1°
